| time (UTC) | temp C | wind direction | speed KPH | gust KPH | rain 1hr cm | rain 24hr cm | rain mn cm | humidity % | barometer mb |
| 20260503203655 | 19 | 189 | 4.8 | 4.8 | 0.00 | 0.00 | 0.00 | 59 | 1018.1 |
| 20260503203154 | 19 | 176 | 3.2 | 4.8 | 0.00 | 0.00 | 0.00 | 59 | 1018.1 |
| 20260503202650 | 19 | 176 | 1.6 | 1.6 | 0.00 | 0.00 | 0.00 | 58 | 1018.2 |
| 20260503202148 | 19 | 213 | 0.0 | 0.0 | 0.00 | 0.00 | 0.00 | 59 | 1018.2 |
| 20260503201646 | 19 | 184 | 4.8 | 6.4 | 0.00 | 0.00 | 0.00 | 57 | 1018.2 |
| 20260503201143 | 19 | 182 | 4.8 | 4.8 | 0.00 | 0.00 | 0.00 | 57 | 1018.2 |
| 20260503200639 | 19 | 182 | 0.0 | 1.6 | 0.00 | 0.00 | 0.00 | 57 | 1018.3 |
| 20260503200136 | 19 | 178 | 1.6 | 1.6 | 0.00 | 0.00 | 0.00 | 57 | 1018.3 |
| 20260503195633 | 20 | 196 | 4.8 | 6.4 | 0.00 | 0.00 | 0.00 | 56 | 1018.3 |
| 20260503195130 | 19 | 182 | 4.8 | 4.8 | 0.00 | 0.00 | 0.00 | 56 | 1018.4 |
| 20260503194627 | 20 | 193 | 4.8 | 4.8 | 0.00 | 0.00 | 0.00 | 56 | 1018.4 |
| 20260503194122 | 20 | 178 | 4.8 | 4.8 | 0.00 | 0.00 | 0.00 | 56 | 1018.6 |
| 20260503193620 | 19 | 178 | 1.6 | 1.6 | 0.00 | 0.00 | 0.00 | 58 | 1018.7 |
| 20260503193114 | 19 | 178 | 4.8 | 4.8 | 0.00 | 0.00 | 0.00 | 57 | 1018.7 |
| 20260503192610 | 20 | 219 | 1.6 | 1.6 | 0.00 | 0.00 | 0.00 | 55 | 1018.8 |
| 20260503192106 | 19 | 189 | 3.2 | 4.8 | 0.00 | 0.00 | 0.00 | 56 | 1018.8 |
| 20260503191603 | 20 | 214 | 3.2 | 4.8 | 0.00 | 0.00 | 0.00 | 55 | 1019.0 |
| 20260503191100 | 20 | 213 | 1.6 | 1.6 | 0.00 | 0.00 | 0.00 | 55 | 1019.3 |
| 20260503190557 | 19 | 220 | 4.8 | 4.8 | 0.00 | 0.00 | 0.00 | 56 | 1019.3 |
| 20260503190054 | 20 | 183 | 0.0 | 1.6 | 0.00 | 0.00 | 0.00 | 56 | 1019.3 |
| 20260503185551 | 19 | 163 | 1.6 | 1.6 | 0.00 | 0.00 | 0.00 | 57 | 1019.1 |
| 20260503185050 | 20 | 175 | 4.8 | 6.4 | 0.00 | 0.00 | 0.00 | 55 | 1019.3 |
| 20260503184546 | 19 | 175 | 4.8 | 6.4 | 0.00 | 0.00 | 0.00 | 57 | 1019.2 |
| 20260503184043 | 19 | 165 | 4.8 | 4.8 | 0.00 | 0.00 | 0.00 | 56 | 1019.4 |
| 20260503183540 | 20 | 176 | 1.6 | 1.6 | 0.00 | 0.00 | 0.00 | 57 | 1019.5 |
| 20260503183037 | 20 | 176 | 0.0 | 0.0 | 0.00 | 0.00 | 0.00 | 55 | 1019.5 |
| 20260503182536 | 19 | 176 | 4.8 | 6.4 | 0.00 | 0.00 | 0.00 | 55 | 1019.5 |
| 20260503182033 | 19 | 176 | 3.2 | 4.8 | 0.00 | 0.00 | 0.00 | 56 | 1019.9 |
| 20260503181530 | 19 | 210 | 1.6 | 4.8 | 0.00 | 0.00 | 0.00 | 58 | 1019.6 |
| 20260503181026 | 19 | 210 | 3.2 | 4.8 | 0.00 | 0.00 | 0.00 | 56 | 1019.7 |
| 20260503180524 | 19 | 248 | 3.2 | 4.8 | 0.00 | 0.00 | 0.00 | 57 | 1019.5 |
| 20260503180021 | 20 | 11 | 4.8 | 4.8 | 0.00 | 0.00 | 0.00 | 57 | 1019.6 |
| 20260503175518 | 20 | 198 | 3.2 | 4.8 | 0.00 | 0.00 | 0.00 | 54 | 1019.7 |
| 20260503175015 | 21 | 239 | 1.6 | 1.6 | 0.00 | 0.00 | 0.00 | 53 | 1019.7 |
| 20260503174512 | 20 | 241 | 3.2 | 4.8 | 0.00 | 0.00 | 0.00 | 54 | 1019.7 |
| 20260503174008 | 20 | 230 | 4.8 | 6.4 | 0.00 | 0.00 | 0.00 | 50 | 1019.6 |
| 20260503173503 | 20 | 331 | 3.2 | 4.8 | 0.00 | 0.00 | 0.00 | 51 | 1019.9 |
| 20260503173000 | 20 | 329 | 1.6 | 1.6 | 0.00 | 0.00 | 0.00 | 52 | 1019.8 |
| 20260503172458 | 20 | 203 | 3.2 | 4.8 | 0.00 | 0.00 | 0.00 | 52 | 1020.0 |
| 20260503171954 | 19 | 203 | 1.6 | 1.6 | 0.00 | 0.00 | 0.00 | 51 | 1020.1 |
| 20260503171451 | 20 | 230 | 3.2 | 4.8 | 0.00 | 0.00 | 0.00 | 52 | 1020.1 |
| 20260503170949 | 20 | 245 | 1.6 | 1.6 | 0.00 | 0.00 | 0.00 | 53 | 1020.1 |
| 20260503170445 | 20 | 240 | 4.8 | 4.8 | 0.00 | 0.00 | 0.00 | 49 | 1020.1 |
| 20260503150837 | 16 | 345 | 3.2 | 4.8 | 0.00 | 0.00 | 0.00 | 63 | 1020.4 |
| 20260503150333 | 16 | 345 | 3.2 | 4.8 | 0.00 | 0.00 | 0.00 | 63 | 1020.4 |
| 20260503140257 | 15 | 316 | 4.8 | 6.4 | 0.00 | 0.00 | 0.00 | 73 | 1020.1 |
| 20260503131227 | 13 | 338 | 1.6 | 1.6 | 0.00 | 0.00 | 0.00 | 88 | 1020.0 |
| 20260503130725 | 13 | 326 | 3.2 | 4.8 | 0.00 | 0.00 | 0.00 | 90 | 1020.0 |
| 20260503130221 | 13 | 299 | 3.2 | 4.8 | 0.00 | 0.00 | 0.00 | 92 | 1020.0 |
| 20260503120147 | 11 | 349 | 0.0 | 1.6 | 0.00 | 0.00 | 0.00 | 99 | 1019.6 |
| 20260503110615 | 9 | 353 | 0.0 | 0.0 | 0.00 | 0.00 | 0.00 | 99 | 1018.8 |
| 20260503110112 | 10 | 353 | 0.0 | 0.0 | 0.00 | 0.00 | 0.00 | 99 | 1018.9 |
| 20260503090502 | 10 | 353 | 0.0 | 1.6 | 0.00 | 0.00 | 0.00 | 99 | 1017.2 |
| 20260503081428 | 10 | 352 | 1.6 | 1.6 | 0.00 | 0.00 | 0.00 | 99 | 1016.8 |
| 20260503080926 | 10 | 352 | 0.0 | 1.6 | 0.00 | 0.00 | 0.00 | 99 | 1017.1 |
| 20260503080422 | 10 | 352 | 0.0 | 1.6 | 0.00 | 0.00 | 0.00 | 99 | 1016.9 |
| 20260503072858 | 10 | 352 | 1.6 | 1.6 | 0.00 | 0.00 | 0.00 | 99 | 1016.6 |
| 20260503072355 | 10 | 352 | 0.0 | 0.0 | 0.00 | 0.00 | 0.00 | 99 | 1016.8 |
| 20260503071852 | 10 | 352 | 0.0 | 1.6 | 0.00 | 0.00 | 0.00 | 99 | 1016.6 |
| 20260503071349 | 10 | 352 | 0.0 | 1.6 | 0.00 | 0.00 | 0.00 | 99 | 1016.7 |
| 20260503070845 | 10 | 352 | 1.6 | 1.6 | 0.00 | 0.00 | 0.00 | 99 | 1016.7 |
| 20260503070343 | 10 | 352 | 1.6 | 1.6 | 0.00 | 0.00 | 0.00 | 99 | 1016.5 |
| 20260503060303 | 11 | 351 | 1.6 | 1.6 | 0.00 | 0.00 | 0.00 | 99 | 1016.5 |
| 20260503054749 | 11 | 351 | 1.6 | 1.6 | 0.00 | 0.00 | 0.00 | 99 | 1016.3 |
| 20260503054246 | 11 | 351 | 1.6 | 1.6 | 0.00 | 0.00 | 0.00 | 99 | 1016.4 |
| 20260503053744 | 11 | 351 | 0.0 | 0.0 | 0.00 | 0.00 | 0.00 | 99 | 1016.3 |
| 20260503053243 | 11 | 351 | 0.0 | 1.6 | 0.00 | 0.00 | 0.00 | 99 | 1016.3 |
| 20260503052738 | 11 | 351 | 3.2 | 4.8 | 0.00 | 0.00 | 0.00 | 99 | 1016.3 |
| 20260503052236 | 11 | 350 | 1.6 | 1.6 | 0.00 | 0.00 | 0.00 | 99 | 1016.4 |
| 20260503051730 | 11 | 350 | 1.6 | 1.6 | 0.00 | 0.00 | 0.00 | 99 | 1016.2 |
| 20260503051228 | 11 | 350 | 1.6 | 1.6 | 0.00 | 0.00 | 0.00 | 99 | 1015.9 |
| 20260503050724 | 11 | 350 | 1.6 | 1.6 | 0.00 | 0.00 | 0.00 | 99 | 1016.1 |
| 20260503050221 | 11 | 350 | 1.6 | 1.6 | 0.00 | 0.00 | 0.00 | 99 | 1015.8 |
| 20260503045719 | 11 | 350 | 0.0 | 0.0 | 0.00 | 0.00 | 0.00 | 99 | 1016.0 |
| 20260503045216 | 11 | 350 | 1.6 | 1.6 | 0.00 | 0.00 | 0.00 | 99 | 1016.1 |
| 20260503044713 | 11 | 350 | 1.6 | 1.6 | 0.00 | 0.00 | 0.00 | 99 | 1016.2 |
| 20260503044210 | 11 | 350 | 1.6 | 1.6 | 0.00 | 0.00 | 0.00 | 99 | 1015.8 |
| 20260503043706 | 11 | 350 | 0.0 | 0.0 | 0.00 | 0.00 | 0.00 | 99 | 1015.8 |
| 20260503043204 | 11 | 350 | 3.2 | 4.8 | 0.00 | 0.00 | 0.00 | 99 | 1015.8 |
| 20260503042700 | 12 | 350 | 0.0 | 0.0 | 0.00 | 0.00 | 0.00 | 99 | 1015.8 |
| 20260503042156 | 11 | 350 | 0.0 | 0.0 | 0.00 | 0.00 | 0.00 | 99 | 1015.6 |
| 20260503041652 | 11 | 350 | 3.2 | 4.8 | 0.00 | 0.00 | 0.00 | 99 | 1015.6 |
| 20260503041150 | 11 | 350 | 1.6 | 1.6 | 0.00 | 0.00 | 0.00 | 99 | 1015.5 |
| 20260503040648 | 11 | 350 | 1.6 | 1.6 | 0.00 | 0.00 | 0.00 | 99 | 1015.6 |
| 20260503040145 | 12 | 342 | 4.8 | 6.4 | 0.00 | 0.00 | 0.00 | 99 | 1015.4 |
| 20260503035642 | 12 | 313 | 1.6 | 1.6 | 0.00 | 3.38 | 3.38 | 99 | 1015.4 |
| 20260503035139 | 12 | 312 | 0.0 | 0.0 | 0.00 | 3.38 | 3.38 | 99 | 1015.4 |
| 20260503034637 | 12 | 312 | 1.6 | 1.6 | 0.00 | 3.38 | 3.38 | 99 | 1015.4 |
| 20260503034134 | 12 | 312 | 0.0 | 1.6 | 0.00 | 3.38 | 3.38 | 99 | 1015.3 |
| 20260503033630 | 12 | 312 | 1.6 | 1.6 | 0.00 | 3.38 | 3.38 | 99 | 1015.1 |
| 20260503033128 | 12 | 312 | 0.0 | 1.6 | 0.00 | 3.38 | 3.38 | 99 | 1015.1 |
| 20260503032626 | 12 | 312 | 1.6 | 1.6 | 0.00 | 3.38 | 3.38 | 99 | 1014.8 |
| 20260503032125 | 12 | 321 | 3.2 | 4.8 | 0.00 | 3.38 | 3.38 | 99 | 1015.1 |
| 20260503031622 | 12 | 311 | 1.6 | 1.6 | 0.00 | 3.38 | 3.38 | 99 | 1014.9 |
| 20260503031119 | 12 | 285 | 3.2 | 4.8 | 0.00 | 3.38 | 3.38 | 99 | 1014.8 |
| 20260503030615 | 12 | 273 | 3.2 | 4.8 | 0.00 | 3.38 | 3.38 | 99 | 1014.7 |
| 20260503030112 | 12 | 271 | 1.6 | 1.6 | 0.00 | 3.38 | 3.38 | 99 | 1014.5 |
| 20260503025609 | 12 | 298 | 1.6 | 1.6 | 0.00 | 3.38 | 3.38 | 99 | 1014.5 |
| 20260503025107 | 12 | 299 | 1.6 | 1.6 | 0.00 | 3.38 | 3.38 | 99 | 1014.5 |
| 20260503024603 | 12 | 298 | 0.0 | 1.6 | 0.00 | 3.38 | 3.38 | 99 | 1014.3 |
| 20260503024100 | 12 | 291 | 1.6 | 1.6 | 0.00 | 3.38 | 3.38 | 99 | 1014.6 |
| 20260503023557 | 12 | 304 | 1.6 | 1.6 | 0.00 | 3.38 | 3.38 | 99 | 1014.4 |
| 20260503023054 | 12 | 304 | 1.6 | 1.6 | 0.00 | 3.38 | 3.38 | 99 | 1014.3 |
| 20260503022550 | 12 | 305 | 1.6 | 1.6 | 0.00 | 3.38 | 3.38 | 99 | 1014.2 |
| 20260503022045 | 12 | 312 | 1.6 | 1.6 | 0.00 | 3.38 | 3.38 | 99 | 1014.2 |
| 20260503021542 | 12 | 312 | 0.0 | 1.6 | 0.00 | 3.38 | 3.38 | 99 | 1014.0 |
| 20260503021039 | 12 | 312 | 0.0 | 0.0 | 0.00 | 3.38 | 3.38 | 99 | 1013.9 |
| 20260503020536 | 12 | 313 | 0.0 | 0.0 | 0.00 | 3.38 | 3.38 | 99 | 1013.8 |
| 20260503020033 | 12 | 313 | 1.6 | 1.6 | 0.00 | 3.38 | 3.38 | 99 | 1013.8 |
| 20260503015529 | 12 | 313 | 1.6 | 1.6 | 0.00 | 3.38 | 3.38 | 99 | 1013.7 |
| 20260503015027 | 12 | 313 | 1.6 | 1.6 | 0.00 | 3.38 | 3.38 | 99 | 1013.7 |
| 20260503014522 | 12 | 313 | 0.0 | 1.6 | 0.00 | 3.38 | 3.38 | 99 | 1013.4 |
| 20260503014021 | 12 | 286 | 0.0 | 0.0 | 0.00 | 3.38 | 3.38 | 99 | 1013.5 |
| 20260503013518 | 12 | 286 | 0.0 | 1.6 | 0.00 | 3.38 | 3.38 | 99 | 1013.3 |
| 20260503013015 | 12 | 286 | 1.6 | 1.6 | 0.00 | 3.38 | 3.38 | 99 | 1013.5 |
| 20260503012513 | 12 | 286 | 0.0 | 0.0 | 0.00 | 3.38 | 3.38 | 99 | 1013.4 |
| 20260503012009 | 12 | 286 | 0.0 | 0.0 | 0.00 | 3.38 | 3.38 | 99 | 1013.5 |
| 20260503011506 | 12 | 286 | 0.0 | 0.0 | 0.00 | 3.38 | 3.38 | 99 | 1013.5 |
| 20260503011003 | 12 | 286 | 1.6 | 1.6 | 0.00 | 3.38 | 3.38 | 99 | 1013.6 |
| 20260503010459 | 12 | 286 | 0.0 | 1.6 | 0.00 | 3.38 | 3.38 | 99 | 1013.7 |
| 20260503005957 | 12 | 324 | 4.8 | 6.4 | 0.00 | 3.38 | 3.38 | 99 | 1013.6 |
| 20260503005454 | 12 | 328 | 1.6 | 1.6 | 0.00 | 3.38 | 3.38 | 99 | 1013.5 |
| 20260503004950 | 12 | 328 | 4.8 | 6.4 | 0.00 | 3.38 | 3.38 | 99 | 1013.3 |
| 20260503004447 | 12 | 318 | 1.6 | 1.6 | 0.00 | 3.38 | 3.38 | 99 | 1013.1 |
| 20260503003945 | 12 | 318 | 0.0 | 1.6 | 0.00 | 3.38 | 3.38 | 99 | 1013.2 |
| 20260503003441 | 12 | 322 | 4.8 | 4.8 | 0.00 | 3.38 | 3.38 | 99 | 1012.8 |
| 20260503002938 | 12 | 322 | 3.2 | 4.8 | 0.00 | 3.38 | 3.38 | 99 | 1012.6 |
| 20260503002435 | 12 | 321 | 1.6 | 1.6 | 0.00 | 3.38 | 3.38 | 99 | 1012.8 |
| 20260503001932 | 12 | 336 | 1.6 | 1.6 | 0.00 | 3.38 | 3.38 | 99 | 1012.5 |
| 20260503001428 | 12 | 336 | 0.0 | 1.6 | 0.00 | 3.38 | 3.38 | 99 | 1012.5 |
| 20260503000926 | 12 | 344 | 3.2 | 4.8 | 0.00 | 3.38 | 3.38 | 99 | 1012.8 |
| 20260503000423 | 12 | 337 | 1.6 | 1.6 | 0.00 | 3.38 | 3.38 | 99 | 1012.7 |
| 20260502235920 | 12 | 337 | 1.6 | 1.6 | 0.00 | 3.38 | 3.38 | 99 | 1012.8 |
| 20260502235417 | 12 | 338 | 1.6 | 1.6 | 0.00 | 3.38 | 3.38 | 99 | 1012.4 |
| 20260502234914 | 12 | 355 | 3.2 | 4.8 | 0.00 | 3.38 | 3.38 | 99 | 1012.3 |
| 20260502234411 | 12 | 356 | 3.2 | 4.8 | 0.00 | 3.38 | 3.38 | 99 | 1012.2 |
| 20260502233908 | 12 | 286 | 3.2 | 4.8 | 0.00 | 3.38 | 3.38 | 99 | 1012.2 |
| 20260502233403 | 12 | 345 | 4.8 | 4.8 | 0.00 | 3.38 | 3.38 | 99 | 1012.3 |
| 20260502232901 | 12 | 321 | 3.2 | 4.8 | 0.00 | 3.38 | 3.38 | 99 | 1012.3 |
| 20260502232357 | 12 | 339 | 1.6 | 1.6 | 0.00 | 3.38 | 3.38 | 99 | 1011.9 |
| 20260502231854 | 12 | 318 | 1.6 | 1.6 | 0.00 | 3.38 | 3.38 | 99 | 1011.7 |
| 20260502231352 | 13 | 351 | 3.2 | 4.8 | 0.23 | 3.38 | 3.38 | 99 | 1011.8 |
| 20260502230850 | 12 | 346 | 1.6 | 1.6 | 0.23 | 3.38 | 3.38 | 99 | 1011.6 |
| 20260502230348 | 13 | 343 | 3.2 | 4.8 | 0.00 | 3.35 | 3.35 | 99 | 1011.8 |
| 20260502225844 | 13 | 6 | 4.8 | 8.0 | 0.00 | 3.35 | 3.35 | 99 | 1011.7 |
| 20260502225341 | 13 | 22 | 3.2 | 4.8 | 0.00 | 3.35 | 3.35 | 99 | 1011.8 |
| 20260502224838 | 13 | 22 | 1.6 | 1.6 | 0.00 | 3.35 | 3.35 | 99 | 1011.6 |
| 20260502224334 | 13 | 348 | 1.6 | 1.6 | 0.00 | 3.35 | 3.35 | 99 | 1011.8 |
| 20260502223831 | 13 | 0 | 4.8 | 4.8 | 0.00 | 3.35 | 3.35 | 99 | 1011.6 |
| 20260502223329 | 13 | 11 | 1.6 | 1.6 | 0.00 | 3.35 | 3.35 | 99 | 1011.9 |
| 20260502222827 | 13 | 359 | 4.8 | 4.8 | 0.00 | 3.35 | 3.35 | 99 | 1011.8 |
| 20260502222324 | 13 | 301 | 3.2 | 4.8 | 0.00 | 3.35 | 3.35 | 99 | 1011.6 |
| 20260502221819 | 13 | 18 | 1.6 | 1.6 | 0.00 | 3.35 | 3.35 | 99 | 1011.7 |
| 20260502221316 | 13 | 0 | 3.2 | 4.8 | 0.00 | 3.35 | 3.35 | 99 | 1011.5 |
| 20260502220814 | 13 | 334 | 3.2 | 4.8 | 0.18 | 3.35 | 3.35 | 99 | 1011.6 |
| 20260502220309 | 13 | 339 | 0.0 | 1.6 | 0.18 | 3.35 | 3.35 | 99 | 1011.6 |
| 20260502215806 | 13 | 353 | 4.8 | 4.8 | 0.00 | 3.33 | 3.33 | 99 | 1011.3 |
| 20260502215304 | 13 | 337 | 1.6 | 1.6 | 0.00 | 3.33 | 3.33 | 99 | 1011.2 |
| 20260502214800 | 13 | 340 | 3.2 | 4.8 | 0.00 | 3.33 | 3.33 | 99 | 1011.2 |
| 20260502214256 | 13 | 339 | 3.2 | 4.8 | 0.23 | 3.33 | 3.33 | 99 | 1011.1 |
| 20260502213754 | 13 | 339 | 1.6 | 1.6 | 0.23 | 3.33 | 3.33 | 99 | 1011.3 |
| 20260502213251 | 13 | 322 | 3.2 | 4.8 | 0.00 | 3.28 | 3.28 | 99 | 1011.1 |
| 20260502212750 | 13 | 333 | 3.2 | 4.8 | 0.23 | 3.28 | 3.28 | 99 | 1011.1 |
| 20260502212248 | 13 | 291 | 4.8 | 6.4 | 0.23 | 3.28 | 3.28 | 99 | 1010.7 |
| 20260502211743 | 13 | 314 | 3.2 | 4.8 | 0.00 | 3.25 | 3.25 | 99 | 1010.6 |
| 20260502211240 | 13 | 335 | 4.8 | 6.4 | 0.00 | 3.25 | 3.25 | 99 | 1010.6 |
| 20260502210737 | 13 | 14 | 3.2 | 4.8 | 0.23 | 3.25 | 3.25 | 99 | 1010.6 |
| 20260502210235 | 13 | 14 | 0.0 | 1.6 | 0.23 | 3.25 | 3.25 | 99 | 1010.6 |
| 20260502205732 | 13 | 312 | 4.8 | 6.4 | 0.00 | 3.20 | 3.20 | 99 | 1010.7 |
| 20260502205228 | 13 | 350 | 3.2 | 4.8 | 0.23 | 3.20 | 3.20 | 99 | 1010.7 |
| 20260502204725 | 13 | 22 | 4.8 | 6.4 | 0.23 | 3.20 | 3.20 | 99 | 1010.6 |
| 20260502204223 | 13 | 318 | 3.2 | 4.8 | 0.18 | 3.15 | 3.15 | 99 | 1010.3 |